Temp
28 26 24 26 28 31 32 32 30 25 27 24 25 25 25 26 27 28 29 29 29 30 29 31 29 28 27 28 27 27 26 26 26 25 25 25 25 25 25 25 25 24 24 25
27 25 27 30 31 31 32 32 26 25 25 25 25 26 26 26 27 28 27 28 29 29 29 29 28 27 27 27 27 26 26 26 26 26 25 25 25 24 24 25 25 24 24 24
26 28 30 31 31 32 31 31 29 28 25 24 25 24 25 26 28 28 27 28 28 28 29 27 29 27 27 27 27 26 26 26 26 25 25 25 25 25 25 24 24 24 25 24
28 30 31 31 31 32 29 33 33 28 27 25 26 23 22 25 25 26 27 27 27 28 28 29 29 27 26 26 27 26 26 26 26 24 25 26 25 24 25 25 25 25 25 24
28 30 30 31 32 32 31 33 32 31 29 26 26 24 24 24 25 25 26 27 27 29 28 29 28 28 26 26 26 26 25 25 26 25 25 25 25 25 25 25 25 25 25 25
29 32 31 31 33 33 34 33 32 29 26 27 28 26 23 23 25 24 27 27 27 28 27 29 29 29 26 26 26 26 25 25 25 25 24 25 25 25 25 25 25 25 25 25
30 30 32 33 32 32 32 32 27 27 26 26 28 27 23 24 23 24 23 22 28 25 28 28 27 28 27 26 25 25 25 24 25 25 25 25 25 25 25 25 25 25 25 25
26 27 30 33 32 30 30 29 26 28 27 29 30 23 23 24 25 24 23 23 23 23 22 25 27 28 27 27 25 25 25 25 24 25 25 25 25 24 25 25 25 25 26 25
26 28 32 33 33 31 30 29 30 30 30 29 26 24 23 24 23 23 23 22 22 22 23 23 24 28 28 27 26 25 25 25 25 24 25 25 25 25 25 26 26 26 26 26
28 25 29 33 33 33 31 30 27 27 28 29 25 24 23 24 24 23 22 21 21 21 23 22 22 22 21 22 26 25 24 24 25 25 25 25 25 26 26 26 26 26 25 26
26 26 27 31 30 29 29 27 29 28 28 27 23 24 22 23 23 22 22 21 20 20 20 20 19 19 20 21 20 21 21 22 22 24 25 25 25 25 26 26 26 26 26 25
25 25 25 28 31 31 29 29 28 25 27 25 23 21 21 23 22 22 21 20 19 19 19 19 19 18 19 19 20 21 20 20 21 21 22 25 25 25 25 25 25 26 26 26
24 23 23 26 29 29 29 29 29 28 26 27 25 21 21 21 22 21 21 20 19 19 18 18 17 17 17 17 18 19 19 21 19 19 22 23 25 25 25 25 25 25 25 25
22 25 22 21 25 27 29 29 29 29 25 25 24 21 22 21 20 21 20 21 20 20 19 18 17 16 16 17 17 17 18 19 20 20 21 21 23 24 25 25 26 26 25 25
23 23 23 25 27 28 28 29 30 30 26 24 24 23 22 22 21 21 21 21 21 21 20 19 19 18 17 17 17 17 17 17 19 19 20 20 20 21 23 23 25 26 25 25
26 21 23 23 28 28 27 29 30 30 26 24 23 21 22 21 22 22 22 22 22 21 21 21 20 19 18 18 17 17 16 17 18 18 18 19 19 19 21 21 21 25 25 25
24 22 23 22 24 26 25 26 27 28 26 25 22 19 20 22 22 22 22 22 21 20 19 19 19 19 20 18 18 18 17 18 18 17 17 17 17 19 19 19 20 20 22 23
23 22 21 21 22 23 26 25 27 29 27 23 21 21 22 22 23 21 20 20 19 19 19 19 20 20 20 20 20 18 18 18 18 18 17 18 18 17 18 18 18 19 20 21
23 21 21 20 20 23 27 27 26 25 24 23 22 23 23 22 21 20 20 19 18 18 19 20 20 19 19 19 19 19 18 18 18 17 18 18 17 18 18 18 17 18 18 19
21 21 19 20 21 21 23 24 25 26 22 23 23 22 22 22 19 17 19 19 19 19 19 19 19 18 18 18 18 18 17 17 16 16 16 17 17 18 18 18 18 18 18 18
19 19 19 19 20 22 24 24 24 23 21 23 22 21 21 18 19 18 18 18 20 19 19 19 18 17 17 17 17 16 15 15 15 16 16 16 16 16 17 17 18 18 19 19
20 18 19 19 20 20 22 23 21 20 20 20 20 19 19 18 18 17 17 17 19 18 18 17 17 15 14 14 14 14 14 14 14 14 15 15 15 16 16 17 18 18 19 19
19 18 18 18 18 19 19 19 19 19 18 18 19 19 19 18 17 17 16 15 16 16 16 15 15 14 13 13 13 12 11 12 12 12 13 14 15 16 16 17 17 18 19 19
20 20 17 17 19 20 20 19 20 20 19 19 18 18 19 17 17 15 14 14 15 15 15 14 14 13 13 12 12 11 11 11 11 11 11 12 13 13 15 16 17 18 19 19
18 19 18 17 19 20 20 20 20 19 19 18 18 19 17 17 16 15 13 14 14 14 14 14 13 13 12 12 11 10 10 10 10 10 10 10 10 11 12 13 14 15 16 17
15 15 14 15 18 18 19 18 19 18 18 18 18 17 18 17 15 15 14 14 14 14 13 13 12 12 11 10 10 10 10 9 9 9 9 9 10 10 11 11 12 13 14 15
Height
748 771 785 773 760 751 748 753 764 784 774 784 793 790 791 790 788 790 790 790 793 794 796 802 808 814 820 825 829 836 839 843 847 851 853 854 856 857 860 862 865 866 867 868
762 780 760 751 748 748 747 755 785 783 777 781 786 795 791 792 789 786 791 792 790 792 796 800 807 813 818 824 829 835 838 843 847 850 853 854 855 858 860 861 864 867 868 868
770 756 744 749 748 750 748 757 768 772 783 781 789 809 804 793 788 789 789 789 789 792 795 799 803 810 816 822 828 833 838 843 847 849 852 853 856 858 859 863 863 864 867 869
758 738 743 745 748 743 766 732 735 766 777 801 777 835 823 803 801 796 794 794 793 792 794 797 801 806 812 819 825 832 838 843 846 850 851 851 853 856 858 861 863 863 865 868
756 743 745 745 740 730 746 729 738 749 767 782 796 813 808 806 807 802 796 795 794 791 794 797 800 804 811 816 821 827 834 840 844 849 851 852 855 856 858 861 861 862 865 867
739 720 726 730 720 719 717 731 740 752 776 798 778 794 818 813 799 801 792 791 794 795 796 798 800 804 809 815 819 825 830 836 841 845 850 852 854 856 858 859 861 862 864 866
740 735 720 715 731 721 728 744 792 799 806 809 763 786 800 789 792 792 803 805 792 795 797 798 800 803 809 815 820 823 829 834 839 843 846 850 853 856 857 857 861 862 865 865
766 771 731 713 727 743 743 752 793 805 802 785 753 811 796 780 789 793 789 795 804 800 798 799 797 801 807 813 818 822 826 832 837 841 844 847 851 855 856 857 861 862 864 865
763 755 714 712 716 726 742 756 737 762 759 774 790 797 795 785 794 792 794 789 807 803 796 797 801 798 803 808 814 819 823 828 833 838 842 845 849 852 855 855 858 860 863 861
743 771 729 714 713 716 729 733 770 766 789 791 802 803 804 795 795 798 802 799 807 801 792 796 802 804 806 813 814 820 825 828 827 834 839 843 845 848 852 854 855 857 861 860
745 760 749 721 735 741 745 758 750 756 764 790 820 811 795 798 798 803 805 808 807 804 803 800 807 807 806 813 820 820 827 832 835 837 836 840 843 846 849 851 852 853 857 862
752 765 770 746 720 719 731 742 749 783 783 779 798 821 799 796 804 805 808 812 811 812 811 804 809 809 806 804 814 817 830 834 835 841 840 837 839 843 847 850 853 854 854 856
761 774 779 763 743 732 742 739 741 746 758 776 796 820 799 796 806 810 813 813 815 816 815 812 815 815 811 813 824 828 829 828 829 845 838 839 839 839 845 848 850 853 855 854
760 766 782 796 771 753 750 742 737 745 779 783 793 807 804 806 813 811 817 816 818 816 819 820 819 819 822 825 827 828 831 830 829 836 840 841 837 840 843 845 848 851 853 854
762 778 773 759 753 748 748 743 742 749 762 786 791 799 805 805 810 809 813 816 818 819 822 823 825 826 828 828 828 828 830 827 828 834 839 839 835 841 839 844 847 848 851 852
753 789 773 775 750 749 755 736 737 742 755 770 781 800 795 801 802 804 812 814 817 821 824 826 826 828 831 832 832 832 831 832 832 835 833 837 839 842 837 838 848 846 848 850
768 781 787 792 769 760 777 759 752 752 749 761 792 800 803 804 806 807 814 817 823 828 830 832 831 831 833 834 834 835 836 836 837 840 839 840 841 839 844 849 845 844 846 844
771 779 786 794 784 801 763 750 748 749 753 766 782 793 794 799 804 813 816 823 829 832 835 837 838 838 839 839 839 840 843 844 845 844 843 844 842 843 845 845 843 843 844 841
766 777 790 802 802 783 763 759 763 768 775 769 782 789 793 799 809 823 821 823 830 836 840 841 842 843 844 844 844 845 847 848 849 848 848 847 846 846 844 842 840 840 840 838
773 774 794 797 803 807 783 767 758 758 796 771 774 786 796 802 822 830 821 825 832 837 842 844 845 844 845 847 848 847 848 848 849 850 849 847 846 846 846 845 843 842 840 838
793 793 801 802 805 791 770 767 763 791 808 778 778 785 793 808 807 817 822 828 833 839 843 845 846 847 848 848 848 849 850 851 851 850 850 849 848 847 845 844 842 839 838 836
795 804 804 798 800 806 775 774 790 792 785 782 786 790 801 805 810 817 824 829 834 839 842 845 846 848 850 850 850 850 849 851 851 851 851 850 848 847 846 843 841 840 837 835
801 797 803 803 807 790 784 787 785 786 791 793 794 798 800 808 815 821 828 833 837 841 844 846 848 849 850 851 852 854 854 851 849 847 846 846 846 845 843 842 840 838 836 834
786 783 797 801 793 790 790 789 789 790 794 796 798 801 805 812 817 824 829 835 840 843 846 848 849 851 852 853 853 853 853 853 852 851 849 847 844 841 838 837 836 834 834 832
794 792 798 801 796 792 792 792 793 796 797 801 803 806 810 813 819 825 832 837 842 846 848 850 851 852 854 854 854 853 852 851 851 850 849 848 846 844 841 838 837 835 833 832
798 806 812 812 796 796 794 793 794 799 802 805 808 810 812 816 822 826 832 838 842 846 848 850 852 853 854 854 855 855 854 852 851 849 848 847 845 843 841 839 835 832 832 830
Wind_Speed
7 4 7 11 12 16 12 11 7 7 8 6 9 17 14 10 10 15 15 12 10 14 15 25 30 30 32 26 24 27 25 21 17 14 15 13 11 12 10 11 10 9 6 5
4 8 12 14 19 19 18 13 10 6 4 8 16 15 12 11 10 14 8 8 13 14 12 18 28 30 31 29 24 21 26 22 17 15 13 12 14 13 8 7 9 8 9 5
9 12 18 18 16 17 15 9 15 10 10 11 6 5 9 13 8 3 2 4 8 10 15 10 22 29 31 32 27 24 27 23 18 15 14 13 11 12 11 12 11 11 9 6
10 20 16 17 14 12 8 9 11 21 9 5 6 2 5 13 11 9 9 6 7 8 7 12 18 27 31 33 31 25 25 24 21 12 14 13 13 14 9 16 17 14 12 8
10 13 14 15 15 12 11 10 15 22 17 8 12 6 3 3 14 12 13 9 8 10 9 12 14 27 32 36 35 31 26 23 25 16 9 12 8 6 8 13 15 15 13 13
14 13 15 9 14 12 10 7 7 3 4 1 9 8 5 8 11 8 15 14 9 8 6 7 20 27 31 31 31 33 28 25 22 21 14 14 11 7 8 12 13 12 13 13
11 16 11 9 6 6 6 2 3 1 3 6 10 10 3 13 14 15 4 9 12 10 11 7 12 17 25 28 28 33 31 27 23 21 17 15 13 10 6 17 14 14 14 13
7 7 13 4 4 7 7 6 5 7 5 7 6 6 5 8 10 11 8 10 10 7 3 5 17 21 20 28 31 30 33 29 26 22 22 18 14 11 12 15 14 16 12 16
3 10 8 8 7 9 8 8 9 4 7 3 5 5 7 5 7 9 7 6 1 5 3 5 9 21 21 30 32 33 34 34 31 26 25 22 20 17 16 14 12 11 11 10
1 5 12 11 4 0 2 4 5 1 4 4 4 3 7 10 12 12 9 13 8 10 5 8 7 4 17 9 21 23 26 29 35 33 27 25 23 22 19 15 13 15 15 10
6 4 8 7 4 4 2 4 1 1 1 4 5 1 8 9 10 12 13 13 12 11 10 11 14 22 16 13 5 16 9 5 6 26 30 25 24 22 20 18 13 14 11 21
3 4 6 7 4 7 6 6 4 4 5 3 5 1 1 14 12 14 12 13 13 11 8 12 15 16 22 20 4 6 2 16 21 12 14 28 26 24 22 21 19 17 15 14
6 5 4 6 1 5 5 8 7 3 2 5 4 4 6 14 12 13 12 13 11 11 11 11 17 15 16 16 8 8 8 9 2 19 10 13 25 25 22 22 23 19 15 15
5 3 4 3 3 4 4 5 7 2 4 5 2 13 15 16 15 15 11 12 12 12 13 12 13 16 17 15 11 14 11 8 14 15 11 14 5 17 22 23 21 21 20 19
4 3 6 9 8 8 9 9 9 1 11 6 7 10 15 16 17 16 14 13 14 13 12 11 11 15 14 15 18 16 17 17 7 4 8 8 15 3 4 8 19 22 21 20
2 1 9 7 6 6 9 6 6 6 13 10 10 16 14 13 15 17 13 13 14 14 13 11 12 14 16 15 15 19 19 18 20 15 12 5 4 6 5 23 11 14 17 16
3 4 3 6 10 7 5 8 7 5 8 13 12 11 13 16 14 16 13 14 13 11 10 9 11 18 21 14 17 20 22 25 25 20 16 11 9 10 8 2 5 2 9 13
2 2 2 3 7 3 3 10 9 2 12 18 21 16 17 14 14 13 13 13 11 9 8 9 16 19 17 17 19 11 18 20 18 18 18 17 16 14 10 9 5 5 7 6
6 4 2 3 2 7 4 5 5 5 10 20 20 17 18 20 18 11 12 11 10 10 14 12 17 18 19 16 16 18 19 20 19 18 16 14 13 12 12 14 14 12 11 10
7 1 4 4 1 5 1 8 11 4 6 18 22 22 20 13 8 4 9 10 15 21 14 12 16 19 17 17 15 17 19 20 18 16 15 15 15 14 11 11 14 13 12 12
2 3 2 4 4 4 0 5 8 4 3 14 17 16 13 5 6 9 9 12 18 19 12 12 17 18 17 16 15 18 20 19 15 14 13 13 13 14 14 14 15 17 15 14
0 4 3 2 1 2 6 5 4 3 9 14 15 19 16 14 13 11 10 9 13 14 15 18 18 21 21 18 17 19 21 19 17 16 14 14 14 14 14 15 16 17 16 16
2 4 2 3 3 1 6 7 7 7 8 9 11 11 14 12 10 10 8 11 18 18 17 16 16 17 17 17 16 17 17 18 18 21 21 20 17 16 16 17 18 19 18 14
3 5 3 4 5 6 8 8 7 7 8 8 10 9 8 9 9 9 8 13 16 14 15 14 13 13 12 13 12 14 18 18 18 19 20 22 23 25 22 20 19 20 16 15
2 4 3 4 3 3 5 6 6 8 8 9 8 8 8 9 9 10 8 15 16 13 12 10 10 9 12 11 13 13 14 18 18 17 19 21 22 24 24 24 23 23 22 20
4 4 2 3 3 1 3 8 8 8 6 7 6 7 10 11 9 15 13 18 13 10 10 10 9 10 11 11 11 9 12 14 17 18 18 20 22 22 22 23 26 26 24 23
Wind_Direction
235 109 220 243 250 250 258 217 167 151 107 91 236 147 166 200 183 176 183 175 158 151 149 144 145 140 148 150 143 162 155 155 164 162 163 157 152 165 165 162 163 156 159 151
157 218 233 227 243 249 255 267 74 37 133 51 200 139 159 194 201 179 184 176 159 156 155 150 141 147 148 155 157 167 166 168 170 183 179 179 158 157 167 162 163 166 176 157
221 230 223 242 238 247 246 255 181 159 137 117 133 72 185 197 190 188 250 195 158 156 161 159 153 154 156 161 168 163 168 171 180 189 184 182 192 171 177 183 186 178 171 185
221 250 230 234 246 237 244 252 191 133 141 182 174 48 311 212 199 210 213 214 185 180 147 171 174 155 159 165 171 169 177 180 189 172 182 192 209 193 202 196 191 175 168 188
247 241 248 223 242 232 243 143 151 162 186 113 198 122 225 222 193 198 208 215 216 198 180 189 167 155 165 167 173 175 178 189 202 193 183 190 186 174 210 200 190 175 175 178
235 250 244 230 237 236 259 188 168 94 83 101 194 153 201 183 185 192 210 200 213 206 210 199 169 164 164 169 171 176 178 189 202 207 197 177 186 189 169 190 177 176 189 191
230 248 253 250 234 280 285 187 272 238 159 225 210 186 239 176 161 174 182 274 220 206 219 220 163 171 154 167 169 177 179 186 198 205 205 191 190 190 198 172 186 201 203 200
212 250 248 209 224 229 252 199 179 206 191 215 114 144 249 186 146 148 137 243 292 286 13 314 174 178 165 169 171 177 184 185 196 204 207 206 185 198 192 193 206 216 221 197
280 224 236 172 195 225 286 231 230 293 274 150 110 52 41 108 98 104 128 154 280 336 301 282 314 186 187 179 177 180 186 191 192 200 203 205 203 207 212 215 204 195 188 175
309 323 299 188 151 330 110 317 3 353 283 72 90 150 155 170 141 106 92 95 62 34 54 59 106 49 67 67 168 181 184 192 191 196 202 204 204 205 210 221 216 201 184 200
68 349 293 135 164 133 317 300 293 85 253 140 148 98 347 122 108 99 89 87 72 59 46 98 86 71 82 77 86 120 90 67 243 202 201 206 213 214 210 217 216 193 174 189
352 266 281 236 275 182 245 251 224 142 300 88 112 79 347 90 96 90 81 89 82 72 64 70 86 90 82 106 228 212 329 62 41 333 259 211 213 217 214 215 218 219 208 189
352 313 345 301 156 274 236 262 271 291 64 177 92 150 148 92 94 98 91 100 94 91 74 74 73 72 67 86 95 127 98 156 310 353 358 246 223 214 215 217 221 223 218 218
152 329 150 216 262 321 219 253 271 242 61 71 13 132 146 130 127 113 103 103 103 95 89 90 76 70 74 80 76 75 86 120 164 228 16 3 269 232 222 222 219 224 227 224
105 340 336 250 261 343 342 215 249 231 136 133 180 136 148 140 132 121 118 115 106 102 104 99 103 102 91 77 70 69 81 84 124 190 256 319 14 343 140 320 233 227 229 230
350 260 324 325 337 347 342 305 213 8 108 120 93 103 125 122 118 111 113 115 104 98 91 96 103 112 105 99 89 81 77 89 91 98 102 131 247 41 21 319 272 206 216 224
81 99 247 285 321 330 351 352 46 18 89 129 141 152 146 140 132 125 127 105 94 92 87 76 77 75 70 99 94 95 91 78 76 77 74 76 88 66 83 157 347 10 213 220
49 20 23 316 343 306 298 20 353 78 110 106 114 141 144 139 122 111 109 110 101 87 77 86 91 84 83 68 59 126 90 83 77 69 65 57 51 54 45 41 37 359 338 339
360 348 16 165 313 296 348 23 6 57 101 125 131 144 118 112 101 95 103 101 110 100 83 73 106 95 74 73 57 70 86 76 64 50 47 49 44 38 23 21 26 14 353 335
340 298 108 345 5 207 304 12 346 342 123 127 126 129 131 133 115 142 115 105 97 96 85 75 81 81 66 59 56 58 62 56 47 34 24 22 16 15 20 12 2 357 354 356
39 355 203 264 245 93 280 20 320 65 260 150 137 143 137 103 143 137 101 95 103 113 108 91 79 72 64 54 52 50 47 35 21 11 8 5 2 357 351 345 345 351 346 342
286 154 237 274 7 79 351 23 67 178 42 77 87 106 108 105 100 102 104 94 97 89 83 80 73 69 60 55 48 33 22 12 11 10 355 349 343 339 336 334 331 329 330 338
9 114 146 100 129 62 57 97 61 65 72 69 91 100 110 112 109 107 105 93 81 75 72 70 63 61 53 46 41 36 28 14 8 6 3 356 340 337 330 324 320 320 322 315
335 8 95 71 14 93 71 58 73 81 74 70 86 75 93 109 109 108 100 93 92 79 66 65 70 61 57 48 33 26 19 13 11 7 360 360 360 359 355 342 333 324 323 336
188 20 41 13 149 112 101 97 90 79 87 86 91 97 100 103 107 110 101 99 96 91 88 77 67 59 53 42 47 26 17 13 12 7 360 359 360 350 348 347 346 343 341 340
359 25 85 209 291 50 192 147 124 121 115 110 114 94 94 109 101 107 110 116 109 114 98 92 75 70 59 45 30 27 19 9 4 0 358 354 350 345 344 341 335 328 335 336